owner,sensor,date,latitude,longitude,vertical_datum,sea_water_practical_salinity,qcFlag 
ENP,ioos.station.NOAA.NDBC:TCVF1:1,2017-12-01T00:00:00Z,25.2130,-80.5330,1.5,3.16,1111122 
ENP,ioos.station.NOAA.NDBC:TCVF1:1,2017-12-01T01:00:00Z,25.2130,-80.5330,1.5,3.15,1111122 
ENP,ioos.station.NOAA.NDBC:TCVF1:1,2017-12-01T03:00:00Z,25.2130,-80.5330,1.5,8.58,1111122 
ENP,ioos.station.NOAA.NDBC:TCVF1:1,2017-12-01T04:00:00Z,25.2130,-80.5330,1.5,16.26,1111122 
ENP,ioos.station.NOAA.NDBC:TCVF1:1,2017-12-01T06:00:00Z,25.2130,-80.5330,1.5,5.81,1111122 
ENP,ioos.station.NOAA.NDBC:TCVF1:1,2017-12-01T07:00:00Z,25.2130,-80.5330,1.5,5.08,1111122 
ENP,ioos.station.NOAA.NDBC:TCVF1:1,2017-12-01T08:00:00Z,25.2130,-80.5330,1.5,16.13,1111122 
ENP,ioos.station.NOAA.NDBC:TCVF1:1,2017-12-01T09:00:00Z,25.2130,-80.5330,1.5,5.34,1111122 
ENP,ioos.station.NOAA.NDBC:TCVF1:1,2017-12-01T11:00:00Z,25.2130,-80.5330,1.5,4.27,1111122 
ENP,ioos.station.NOAA.NDBC:TCVF1:1,2017-12-01T12:00:00Z,25.2130,-80.5330,1.5,4.38,1111122 
ENP,ioos.station.NOAA.NDBC:TCVF1:1,2017-12-01T13:00:00Z,25.2130,-80.5330,1.5,4.52,1111122 
ENP,ioos.station.NOAA.NDBC:TCVF1:1,2017-12-01T14:00:00Z,25.2130,-80.5330,1.5,4.54,1111122 
ENP,ioos.station.NOAA.NDBC:TCVF1:1,2017-12-01T15:00:00Z,25.2130,-80.5330,1.5,16.53,1111122 
ENP,ioos.station.NOAA.NDBC:TCVF1:1,2017-12-01T16:00:00Z,25.2130,-80.5330,1.5,17.14,1111122 
ENP,ioos.station.NOAA.NDBC:TCVF1:1,2017-12-01T17:00:00Z,25.2130,-80.5330,1.5,17.41,1111122 
ENP,ioos.station.NOAA.NDBC:TCVF1:1,2017-12-01T18:00:00Z,25.2130,-80.5330,1.5,17.75,1111122 
ENP,ioos.station.NOAA.NDBC:TCVF1:1,2017-12-01T19:00:00Z,25.2130,-80.5330,1.5,17.81,1111122 
ENP,ioos.station.NOAA.NDBC:TCVF1:1,2017-12-02T08:00:00Z,25.2130,-80.5330,1.5,18.29,1111122 
ENP,ioos.station.NOAA.NDBC:TCVF1:1,2017-12-02T09:00:00Z,25.2130,-80.5330,1.5,18.29,1111122 
ENP,ioos.station.NOAA.NDBC:TCVF1:1,2017-12-02T11:00:00Z,25.2130,-80.5330,1.5,8.37,1111122 
ENP,ioos.station.NOAA.NDBC:TCVF1:1,2017-12-02T12:00:00Z,25.2130,-80.5330,1.5,7.7,1111122 
ENP,ioos.station.NOAA.NDBC:TCVF1:1,2017-12-02T13:00:00Z,25.2130,-80.5330,1.5,6.83,1111122 
ENP,ioos.station.NOAA.NDBC:TCVF1:1,2017-12-02T14:00:00Z,25.2130,-80.5330,1.5,6.43,1111122 
ENP,ioos.station.NOAA.NDBC:TCVF1:1,2017-12-02T15:00:00Z,25.2130,-80.5330,1.5,17.54,1111122 
ENP,ioos.station.NOAA.NDBC:TCVF1:1,2017-12-02T16:00:00Z,25.2130,-80.5330,1.5,17.81,1111122 
ENP,ioos.station.NOAA.NDBC:TCVF1:1,2017-12-02T17:00:00Z,25.2130,-80.5330,1.5,17.88,1111122 
ENP,ioos.station.NOAA.NDBC:TCVF1:1,2017-12-02T18:00:00Z,25.2130,-80.5330,1.5,18.42,1111122 
ENP,ioos.station.NOAA.NDBC:TCVF1:1,2017-12-02T19:00:00Z,25.2130,-80.5330,1.5,21.23,1111122 
ENP,ioos.station.NOAA.NDBC:TCVF1:1,2017-12-02T20:00:00Z,25.2130,-80.5330,1.5,16.87,1111122 
ENP,ioos.station.NOAA.NDBC:TCVF1:1,2017-12-02T21:00:00Z,25.2130,-80.5330,1.5,11.32,1111122 
ENP,ioos.station.NOAA.NDBC:TCVF1:1,2017-12-02T23:00:00Z,25.2130,-80.5330,1.5,6.68,1111122 
ENP,ioos.station.NOAA.NDBC:TCVF1:1,2017-12-03T00:00:00Z,25.2130,-80.5330,1.5,5.63,1111122 
ENP,ioos.station.NOAA.NDBC:TCVF1:1,2017-12-03T01:00:00Z,25.2130,-80.5330,1.5,5.0,1111122 
ENP,ioos.station.NOAA.NDBC:TCVF1:1,2017-12-03T03:00:00Z,25.2130,-80.5330,1.5,17.27,1111122 
ENP,ioos.station.NOAA.NDBC:TCVF1:1,2017-12-03T04:00:00Z,25.2130,-80.5330,1.5,17.81,1111122 
ENP,ioos.station.NOAA.NDBC:TCVF1:1,2017-12-03T06:00:00Z,25.2130,-80.5330,1.5,18.29,1111122 
ENP,ioos.station.NOAA.NDBC:TCVF1:1,2017-12-03T07:00:00Z,25.2130,-80.5330,1.5,18.15,1111122 
ENP,ioos.station.NOAA.NDBC:TCVF1:1,2017-12-03T08:00:00Z,25.2130,-80.5330,1.5,18.63,1111122 
ENP,ioos.station.NOAA.NDBC:TCVF1:1,2017-12-03T09:00:00Z,25.2130,-80.5330,1.5,18.7,1111122 
ENP,ioos.station.NOAA.NDBC:TCVF1:1,2017-12-03T12:00:00Z,25.2130,-80.5330,1.5,8.73,1111122 
ENP,ioos.station.NOAA.NDBC:TCVF1:1,2017-12-03T13:00:00Z,25.2130,-80.5330,1.5,7.99,1111122 
ENP,ioos.station.NOAA.NDBC:TCVF1:1,2017-12-03T14:00:00Z,25.2130,-80.5330,1.5,7.44,1111122 
ENP,ioos.station.NOAA.NDBC:TCVF1:1,2017-12-03T15:00:00Z,25.2130,-80.5330,1.5,16.73,1111122 
ENP,ioos.station.NOAA.NDBC:TCVF1:1,2017-12-03T16:00:00Z,25.2130,-80.5330,1.5,19.45,1111122 
ENP,ioos.station.NOAA.NDBC:TCVF1:1,2017-12-03T17:00:00Z,25.2130,-80.5330,1.5,18.29,1111122 
ENP,ioos.station.NOAA.NDBC:TCVF1:1,2017-12-03T18:00:00Z,25.2130,-80.5330,1.5,17.61,1111122 
ENP,ioos.station.NOAA.NDBC:TCVF1:1,2017-12-03T19:00:00Z,25.2130,-80.5330,1.5,18.09,1111122 
ENP,ioos.station.NOAA.NDBC:TCVF1:1,2017-12-03T20:00:00Z,25.2130,-80.5330,1.5,18.36,1111122 
ENP,ioos.station.NOAA.NDBC:TCVF1:1,2017-12-03T21:00:00Z,25.2130,-80.5330,1.5,18.56,1111122 
ENP,ioos.station.NOAA.NDBC:TCVF1:1,2017-12-03T22:00:00Z,25.2130,-80.5330,1.5,17.48,1111122 
ENP,ioos.station.NOAA.NDBC:TCVF1:1,2017-12-04T01:00:00Z,25.2130,-80.5330,1.5,8.72,1111122 
ENP,ioos.station.NOAA.NDBC:TCVF1:1,2017-12-04T03:00:00Z,25.2130,-80.5330,1.5,17.14,1111122 
ENP,ioos.station.NOAA.NDBC:TCVF1:1,2017-12-04T04:00:00Z,25.2130,-80.5330,1.5,17.88,1111122 
ENP,ioos.station.NOAA.NDBC:TCVF1:1,2017-12-04T06:00:00Z,25.2130,-80.5330,1.5,18.56,1111122 
ENP,ioos.station.NOAA.NDBC:TCVF1:1,2017-12-04T07:00:00Z,25.2130,-80.5330,1.5,18.7,1111122 
ENP,ioos.station.NOAA.NDBC:TCVF1:1,2017-12-04T08:00:00Z,25.2130,-80.5330,1.5,18.76,1111122 
ENP,ioos.station.NOAA.NDBC:TCVF1:1,2017-12-04T09:00:00Z,25.2130,-80.5330,1.5,18.83,1111122 
ENP,ioos.station.NOAA.NDBC:TCVF1:1,2017-12-04T11:00:00Z,25.2130,-80.5330,1.5,18.9,1111122 
ENP,ioos.station.NOAA.NDBC:TCVF1:1,2017-12-04T12:00:00Z,25.2130,-80.5330,1.5,18.97,1111122 
ENP,ioos.station.NOAA.NDBC:TCVF1:1,2017-12-04T13:00:00Z,25.2130,-80.5330,1.5,14.66,1111122 
ENP,ioos.station.NOAA.NDBC:TCVF1:1,2017-12-04T14:00:00Z,25.2130,-80.5330,1.5,17.48,1111122 
ENP,ioos.station.NOAA.NDBC:TCVF1:1,2017-12-04T15:00:00Z,25.2130,-80.5330,1.5,11.19,1111122 
ENP,ioos.station.NOAA.NDBC:TCVF1:1,2017-12-04T16:00:00Z,25.2130,-80.5330,1.5,10.87,1111122 
ENP,ioos.station.NOAA.NDBC:TCVF1:1,2017-12-04T17:00:00Z,25.2130,-80.5330,1.5,18.02,1111122 
ENP,ioos.station.NOAA.NDBC:TCVF1:1,2017-12-04T18:00:00Z,25.2130,-80.5330,1.5,18.63,1111122 
ENP,ioos.station.NOAA.NDBC:TCVF1:1,2017-12-04T19:00:00Z,25.2130,-80.5330,1.5,18.9,1111122 
ENP,ioos.station.NOAA.NDBC:TCVF1:1,2017-12-04T20:00:00Z,25.2130,-80.5330,1.5,18.83,1111122 
ENP,ioos.station.NOAA.NDBC:TCVF1:1,2017-12-04T21:00:00Z,25.2130,-80.5330,1.5,12.56,1111122 
ENP,ioos.station.NOAA.NDBC:TCVF1:1,2017-12-04T22:00:00Z,25.2130,-80.5330,1.5,9.97,1111122 
ENP,ioos.station.NOAA.NDBC:TCVF1:1,2017-12-04T23:00:00Z,25.2130,-80.5330,1.5,8.51,1111122 
ENP,ioos.station.NOAA.NDBC:TCVF1:1,2017-12-05T12:00:00Z,25.2130,-80.5330,1.5,8.51,1111122 
ENP,ioos.station.NOAA.NDBC:TCVF1:1,2017-12-05T13:00:00Z,25.2130,-80.5330,1.5,7.6,1111122 
ENP,ioos.station.NOAA.NDBC:TCVF1:1,2017-12-05T14:00:00Z,25.2130,-80.5330,1.5,7.41,1111122 
ENP,ioos.station.NOAA.NDBC:TCVF1:1,2017-12-05T15:00:00Z,25.2130,-80.5330,1.5,11.58,1111122 
ENP,ioos.station.NOAA.NDBC:TCVF1:1,2017-12-05T16:00:00Z,25.2130,-80.5330,1.5,12.43,1111122 
ENP,ioos.station.NOAA.NDBC:TCVF1:1,2017-12-05T17:00:00Z,25.2130,-80.5330,1.5,14.53,1111122 
ENP,ioos.station.NOAA.NDBC:TCVF1:1,2017-12-05T18:00:00Z,25.2130,-80.5330,1.5,16.0,1111122 
ENP,ioos.station.NOAA.NDBC:TCVF1:1,2017-12-05T19:00:00Z,25.2130,-80.5330,1.5,17.34,1111122 
ENP,ioos.station.NOAA.NDBC:TCVF1:1,2017-12-05T20:00:00Z,25.2130,-80.5330,1.5,17.88,1111122 
ENP,ioos.station.NOAA.NDBC:TCVF1:1,2017-12-05T21:00:00Z,25.2130,-80.5330,1.5,18.15,1111122 
ENP,ioos.station.NOAA.NDBC:TCVF1:1,2017-12-05T22:00:00Z,25.2130,-80.5330,1.5,14.66,1111122 
ENP,ioos.station.NOAA.NDBC:TCVF1:1,2017-12-05T23:00:00Z,25.2130,-80.5330,1.5,11.13,1111122 
ENP,ioos.station.NOAA.NDBC:TCVF1:1,2017-12-06T00:00:00Z,25.2130,-80.5330,1.5,8.05,1111122 
ENP,ioos.station.NOAA.NDBC:TCVF1:1,2017-12-06T01:00:00Z,25.2130,-80.5330,1.5,6.87,1111122 
ENP,ioos.station.NOAA.NDBC:TCVF1:1,2017-12-06T03:00:00Z,25.2130,-80.5330,1.5,5.55,1111122 
ENP,ioos.station.NOAA.NDBC:TCVF1:1,2017-12-06T04:00:00Z,25.2130,-80.5330,1.5,5.85,1111122 
ENP,ioos.station.NOAA.NDBC:TCVF1:1,2017-12-06T06:00:00Z,25.2130,-80.5330,1.5,17.21,1111122 
ENP,ioos.station.NOAA.NDBC:TCVF1:1,2017-12-06T07:00:00Z,25.2130,-80.5330,1.5,17.27,1111122 
ENP,ioos.station.NOAA.NDBC:TCVF1:1,2017-12-06T08:00:00Z,25.2130,-80.5330,1.5,17.27,1111122 
ENP,ioos.station.NOAA.NDBC:TCVF1:1,2017-12-06T09:00:00Z,25.2130,-80.5330,1.5,17.81,1111122 
ENP,ioos.station.NOAA.NDBC:TCVF1:1,2017-12-06T12:00:00Z,25.2130,-80.5330,1.5,17.54,1111122 
ENP,ioos.station.NOAA.NDBC:TCVF1:1,2017-12-06T13:00:00Z,25.2130,-80.5330,1.5,12.43,1111122 
ENP,ioos.station.NOAA.NDBC:TCVF1:1,2017-12-06T14:00:00Z,25.2130,-80.5330,1.5,10.68,1111122 
ENP,ioos.station.NOAA.NDBC:TCVF1:1,2017-12-06T15:00:00Z,25.2130,-80.5330,1.5,17.34,1111122 
ENP,ioos.station.NOAA.NDBC:TCVF1:1,2017-12-06T16:00:00Z,25.2130,-80.5330,1.5,17.61,1111122 
ENP,ioos.station.NOAA.NDBC:TCVF1:1,2017-12-06T17:00:00Z,25.2130,-80.5330,1.5,17.41,1111122 
ENP,ioos.station.NOAA.NDBC:TCVF1:1,2017-12-06T18:00:00Z,25.2130,-80.5330,1.5,17.54,1111122 
ENP,ioos.station.NOAA.NDBC:TCVF1:1,2017-12-06T19:00:00Z,25.2130,-80.5330,1.5,17.54,1111122 
ENP,ioos.station.NOAA.NDBC:TCVF1:1,2017-12-06T20:00:00Z,25.2130,-80.5330,1.5,17.54,1111122 
ENP,ioos.station.NOAA.NDBC:TCVF1:1,2017-12-06T21:00:00Z,25.2130,-80.5330,1.5,17.34,1111122 
ENP,ioos.station.NOAA.NDBC:TCVF1:1,2017-12-06T22:00:00Z,25.2130,-80.5330,1.5,17.48,1111122 
ENP,ioos.station.NOAA.NDBC:TCVF1:1,2017-12-06T23:00:00Z,25.2130,-80.5330,1.5,15.26,1111122 
ENP,ioos.station.NOAA.NDBC:TCVF1:1,2017-12-07T00:00:00Z,25.2130,-80.5330,1.5,11.52,1111122 
ENP,ioos.station.NOAA.NDBC:TCVF1:1,2017-12-07T01:00:00Z,25.2130,-80.5330,1.5,9.34,1111122 
ENP,ioos.station.NOAA.NDBC:TCVF1:1,2017-12-07T04:00:00Z,25.2130,-80.5330,1.5,6.28,1111122 
ENP,ioos.station.NOAA.NDBC:TCVF1:1,2017-12-07T06:00:00Z,25.2130,-80.5330,1.5,16.8,1111122 
ENP,ioos.station.NOAA.NDBC:TCVF1:1,2017-12-07T07:00:00Z,25.2130,-80.5330,1.5,17.95,1111122 
ENP,ioos.station.NOAA.NDBC:TCVF1:1,2017-12-07T08:00:00Z,25.2130,-80.5330,1.5,18.29,1111122 
ENP,ioos.station.NOAA.NDBC:TCVF1:1,2017-12-07T09:00:00Z,25.2130,-80.5330,1.5,14.66,1111122 
ENP,ioos.station.NOAA.NDBC:TCVF1:1,2017-12-07T12:00:00Z,25.2130,-80.5330,1.5,18.49,1111122 
ENP,ioos.station.NOAA.NDBC:TCVF1:1,2017-12-07T13:00:00Z,25.2130,-80.5330,1.5,16.06,1111122 
ENP,ioos.station.NOAA.NDBC:TCVF1:1,2017-12-07T14:00:00Z,25.2130,-80.5330,1.5,15.93,1111122 
ENP,ioos.station.NOAA.NDBC:TCVF1:1,2017-12-07T15:00:00Z,25.2130,-80.5330,1.5,17.88,1111122 
ENP,ioos.station.NOAA.NDBC:TCVF1:1,2017-12-07T16:00:00Z,25.2130,-80.5330,1.5,18.56,1111122 
ENP,ioos.station.NOAA.NDBC:TCVF1:1,2017-12-07T17:00:00Z,25.2130,-80.5330,1.5,8.36,1111122 
ENP,ioos.station.NOAA.NDBC:TCVF1:1,2017-12-07T18:00:00Z,25.2130,-80.5330,1.5,7.58,1111122 
ENP,ioos.station.NOAA.NDBC:TCVF1:1,2017-12-07T20:00:00Z,25.2130,-80.5330,1.5,18.56,1111122 
ENP,ioos.station.NOAA.NDBC:TCVF1:1,2017-12-07T22:00:00Z,25.2130,-80.5330,1.5,18.29,1111122 
ENP,ioos.station.NOAA.NDBC:TCVF1:1,2017-12-07T23:00:00Z,25.2130,-80.5330,1.5,16.8,1111122 
ENP,ioos.station.NOAA.NDBC:TCVF1:1,2017-12-08T00:00:00Z,25.2130,-80.5330,1.5,13.61,1111122 
ENP,ioos.station.NOAA.NDBC:TCVF1:1,2017-12-08T01:00:00Z,25.2130,-80.5330,1.5,10.68,1111122 
ENP,ioos.station.NOAA.NDBC:TCVF1:1,2017-12-08T03:00:00Z,25.2130,-80.5330,1.5,6.99,1111122 
ENP,ioos.station.NOAA.NDBC:TCVF1:1,2017-12-08T04:00:00Z,25.2130,-80.5330,1.5,6.35,1111122 
ENP,ioos.station.NOAA.NDBC:TCVF1:1,2017-12-08T06:00:00Z,25.2130,-80.5330,1.5,13.41,1111122 
ENP,ioos.station.NOAA.NDBC:TCVF1:1,2017-12-08T07:00:00Z,25.2130,-80.5330,1.5,14.0,1111122 
ENP,ioos.station.NOAA.NDBC:TCVF1:1,2017-12-08T08:00:00Z,25.2130,-80.5330,1.5,14.93,1111122 
ENP,ioos.station.NOAA.NDBC:TCVF1:1,2017-12-08T09:00:00Z,25.2130,-80.5330,1.5,14.93,1111122 
ENP,ioos.station.NOAA.NDBC:TCVF1:1,2017-12-08T11:00:00Z,25.2130,-80.5330,1.5,17.41,1111122 
ENP,ioos.station.NOAA.NDBC:TCVF1:1,2017-12-08T12:00:00Z,25.2130,-80.5330,1.5,17.88,1111122 
ENP,ioos.station.NOAA.NDBC:TCVF1:1,2017-12-08T13:00:00Z,25.2130,-80.5330,1.5,18.15,1111122 
ENP,ioos.station.NOAA.NDBC:TCVF1:1,2017-12-08T14:00:00Z,25.2130,-80.5330,1.5,18.36,1111122 
ENP,ioos.station.NOAA.NDBC:TCVF1:1,2017-12-08T16:00:00Z,25.2130,-80.5330,1.5,18.42,1111122 
ENP,ioos.station.NOAA.NDBC:TCVF1:1,2017-12-08T17:00:00Z,25.2130,-80.5330,1.5,18.42,1111122 
ENP,ioos.station.NOAA.NDBC:TCVF1:1,2017-12-08T18:00:00Z,25.2130,-80.5330,1.5,18.42,1111122 
ENP,ioos.station.NOAA.NDBC:TCVF1:1,2017-12-08T19:00:00Z,25.2130,-80.5330,1.5,18.42,1111122 
ENP,ioos.station.NOAA.NDBC:TCVF1:1,2017-12-08T20:00:00Z,25.2130,-80.5330,1.5,18.42,1111122 
ENP,ioos.station.NOAA.NDBC:TCVF1:1,2017-12-08T21:00:00Z,25.2130,-80.5330,1.5,18.42,1111122 
ENP,ioos.station.NOAA.NDBC:TCVF1:1,2017-12-08T22:00:00Z,25.2130,-80.5330,1.5,18.56,1111122 
ENP,ioos.station.NOAA.NDBC:TCVF1:1,2017-12-08T23:00:00Z,25.2130,-80.5330,1.5,18.63,1111122 
ENP,ioos.station.NOAA.NDBC:TCVF1:1,2017-12-09T00:00:00Z,25.2130,-80.5330,1.5,18.63,1111122 
ENP,ioos.station.NOAA.NDBC:TCVF1:1,2017-12-09T01:00:00Z,25.2130,-80.5330,1.5,18.76,1111122 
ENP,ioos.station.NOAA.NDBC:TCVF1:1,2017-12-09T03:00:00Z,25.2130,-80.5330,1.5,19.17,1111122 
ENP,ioos.station.NOAA.NDBC:TCVF1:1,2017-12-09T04:00:00Z,25.2130,-80.5330,1.5,19.24,1111122 
ENP,ioos.station.NOAA.NDBC:TCVF1:1,2017-12-09T06:00:00Z,25.2130,-80.5330,1.5,19.11,1111122 
ENP,ioos.station.NOAA.NDBC:TCVF1:1,2017-12-09T07:00:00Z,25.2130,-80.5330,1.5,18.97,1111122 
ENP,ioos.station.NOAA.NDBC:TCVF1:1,2017-12-09T08:00:00Z,25.2130,-80.5330,1.5,18.63,1111122 
ENP,ioos.station.NOAA.NDBC:TCVF1:1,2017-12-09T09:00:00Z,25.2130,-80.5330,1.5,18.7,1111122 
ENP,ioos.station.NOAA.NDBC:TCVF1:1,2017-12-09T11:00:00Z,25.2130,-80.5330,1.5,18.83,1111122 
ENP,ioos.station.NOAA.NDBC:TCVF1:1,2017-12-09T12:00:00Z,25.2130,-80.5330,1.5,18.83,1111122 
ENP,ioos.station.NOAA.NDBC:TCVF1:1,2017-12-09T13:00:00Z,25.2130,-80.5330,1.5,18.83,1111122 
ENP,ioos.station.NOAA.NDBC:TCVF1:1,2017-12-09T14:00:00Z,25.2130,-80.5330,1.5,18.83,1111122 
ENP,ioos.station.NOAA.NDBC:TCVF1:1,2017-12-09T15:00:00Z,25.2130,-80.5330,1.5,18.7,1111122 
ENP,ioos.station.NOAA.NDBC:TCVF1:1,2017-12-09T16:00:00Z,25.2130,-80.5330,1.5,18.7,1111122 
ENP,ioos.station.NOAA.NDBC:TCVF1:1,2017-12-09T17:00:00Z,25.2130,-80.5330,1.5,18.56,1111122 
ENP,ioos.station.NOAA.NDBC:TCVF1:1,2017-12-09T18:00:00Z,25.2130,-80.5330,1.5,18.36,1111122 
ENP,ioos.station.NOAA.NDBC:TCVF1:1,2017-12-09T19:00:00Z,25.2130,-80.5330,1.5,18.22,1111122 
ENP,ioos.station.NOAA.NDBC:TCVF1:1,2017-12-09T20:00:00Z,25.2130,-80.5330,1.5,17.27,1111122 
ENP,ioos.station.NOAA.NDBC:TCVF1:1,2017-12-09T21:00:00Z,25.2130,-80.5330,1.5,17.14,1111122 
ENP,ioos.station.NOAA.NDBC:TCVF1:1,2017-12-09T22:00:00Z,25.2130,-80.5330,1.5,17.21,1111122 
ENP,ioos.station.NOAA.NDBC:TCVF1:1,2017-12-09T23:00:00Z,25.2130,-80.5330,1.5,15.2,1111122 
ENP,ioos.station.NOAA.NDBC:TCVF1:1,2017-12-10T00:00:00Z,25.2130,-80.5330,1.5,14.33,1111122 
ENP,ioos.station.NOAA.NDBC:TCVF1:1,2017-12-10T01:00:00Z,25.2130,-80.5330,1.5,12.88,1111122 
ENP,ioos.station.NOAA.NDBC:TCVF1:1,2017-12-10T03:00:00Z,25.2130,-80.5330,1.5,10.87,1111122 
ENP,ioos.station.NOAA.NDBC:TCVF1:1,2017-12-10T04:00:00Z,25.2130,-80.5330,1.5,10.04,1111122 
ENP,ioos.station.NOAA.NDBC:TCVF1:1,2017-12-10T06:00:00Z,25.2130,-80.5330,1.5,8.51,1111122 
ENP,ioos.station.NOAA.NDBC:TCVF1:1,2017-12-10T07:00:00Z,25.2130,-80.5330,1.5,7.84,1111122 
ENP,ioos.station.NOAA.NDBC:TCVF1:1,2017-12-10T08:00:00Z,25.2130,-80.5330,1.5,7.6,1111122 
ENP,ioos.station.NOAA.NDBC:TCVF1:1,2017-12-10T09:00:00Z,25.2130,-80.5330,1.5,7.19,1111122 
ENP,ioos.station.NOAA.NDBC:TCVF1:1,2017-12-10T12:00:00Z,25.2130,-80.5330,1.5,6.42,1111122 
ENP,ioos.station.NOAA.NDBC:TCVF1:1,2017-12-10T13:00:00Z,25.2130,-80.5330,1.5,6.07,1111122 
ENP,ioos.station.NOAA.NDBC:TCVF1:1,2017-12-10T14:00:00Z,25.2130,-80.5330,1.5,5.88,1111122 
ENP,ioos.station.NOAA.NDBC:TCVF1:1,2017-12-10T15:00:00Z,25.2130,-80.5330,1.5,5.81,1111122 
ENP,ioos.station.NOAA.NDBC:TCVF1:1,2017-12-10T16:00:00Z,25.2130,-80.5330,1.5,5.6,1111122 
ENP,ioos.station.NOAA.NDBC:TCVF1:1,2017-12-10T17:00:00Z,25.2130,-80.5330,1.5,5.54,1111122 
ENP,ioos.station.NOAA.NDBC:TCVF1:1,2017-12-10T18:00:00Z,25.2130,-80.5330,1.5,5.44,1111122 
ENP,ioos.station.NOAA.NDBC:TCVF1:1,2017-12-10T19:00:00Z,25.2130,-80.5330,1.5,5.36,1111122 
ENP,ioos.station.NOAA.NDBC:TCVF1:1,2017-12-10T20:00:00Z,25.2130,-80.5330,1.5,5.17,1111122 
ENP,ioos.station.NOAA.NDBC:TCVF1:1,2017-12-10T21:00:00Z,25.2130,-80.5330,1.5,5.05,1111122 
ENP,ioos.station.NOAA.NDBC:TCVF1:1,2017-12-10T22:00:00Z,25.2130,-80.5330,1.5,5.06,1111122 
ENP,ioos.station.NOAA.NDBC:TCVF1:1,2017-12-10T23:00:00Z,25.2130,-80.5330,1.5,5.11,1111122 
ENP,ioos.station.NOAA.NDBC:TCVF1:1,2017-12-11T00:00:00Z,25.2130,-80.5330,1.5,5.12,1111122 
ENP,ioos.station.NOAA.NDBC:TCVF1:1,2017-12-11T01:00:00Z,25.2130,-80.5330,1.5,5.09,1111122 
ENP,ioos.station.NOAA.NDBC:TCVF1:1,2017-12-11T03:00:00Z,25.2130,-80.5330,1.5,4.82,1111122 
ENP,ioos.station.NOAA.NDBC:TCVF1:1,2017-12-11T04:00:00Z,25.2130,-80.5330,1.5,4.67,1111122 
ENP,ioos.station.NOAA.NDBC:TCVF1:1,2017-12-11T06:00:00Z,25.2130,-80.5330,1.5,4.48,1111122 
ENP,ioos.station.NOAA.NDBC:TCVF1:1,2017-12-11T07:00:00Z,25.2130,-80.5330,1.5,4.12,1111122 
ENP,ioos.station.NOAA.NDBC:TCVF1:1,2017-12-11T08:00:00Z,25.2130,-80.5330,1.5,3.94,1111122 
ENP,ioos.station.NOAA.NDBC:TCVF1:1,2017-12-11T09:00:00Z,25.2130,-80.5330,1.5,3.92,1111122 
ENP,ioos.station.NOAA.NDBC:TCVF1:1,2017-12-11T11:00:00Z,25.2130,-80.5330,1.5,3.94,1111122 
ENP,ioos.station.NOAA.NDBC:TCVF1:1,2017-12-11T12:00:00Z,25.2130,-80.5330,1.5,3.95,1111122 
ENP,ioos.station.NOAA.NDBC:TCVF1:1,2017-12-11T13:00:00Z,25.2130,-80.5330,1.5,3.97,1111122 
ENP,ioos.station.NOAA.NDBC:TCVF1:1,2017-12-11T14:00:00Z,25.2130,-80.5330,1.5,4.0,1111122 
ENP,ioos.station.NOAA.NDBC:TCVF1:1,2017-12-11T15:00:00Z,25.2130,-80.5330,1.5,4.06,1111122 
ENP,ioos.station.NOAA.NDBC:TCVF1:1,2017-12-11T16:00:00Z,25.2130,-80.5330,1.5,4.12,1111122 
ENP,ioos.station.NOAA.NDBC:TCVF1:1,2017-12-11T17:00:00Z,25.2130,-80.5330,1.5,4.18,1111122 
ENP,ioos.station.NOAA.NDBC:TCVF1:1,2017-12-11T18:00:00Z,25.2130,-80.5330,1.5,4.24,1111122 
ENP,ioos.station.NOAA.NDBC:TCVF1:1,2017-12-11T19:00:00Z,25.2130,-80.5330,1.5,4.26,1111122 
ENP,ioos.station.NOAA.NDBC:TCVF1:1,2017-12-11T20:00:00Z,25.2130,-80.5330,1.5,4.23,1111122 
ENP,ioos.station.NOAA.NDBC:TCVF1:1,2017-12-11T21:00:00Z,25.2130,-80.5330,1.5,4.2,1111122 
ENP,ioos.station.NOAA.NDBC:TCVF1:1,2017-12-11T22:00:00Z,25.2130,-80.5330,1.5,4.15,1111122 
ENP,ioos.station.NOAA.NDBC:TCVF1:1,2017-12-11T23:00:00Z,25.2130,-80.5330,1.5,4.12,1111122 
ENP,ioos.station.NOAA.NDBC:TCVF1:1,2017-12-12T00:00:00Z,25.2130,-80.5330,1.5,4.13,1111122 
ENP,ioos.station.NOAA.NDBC:TCVF1:1,2017-12-12T01:00:00Z,25.2130,-80.5330,1.5,4.16,1111122 
ENP,ioos.station.NOAA.NDBC:TCVF1:1,2017-12-12T04:00:00Z,25.2130,-80.5330,1.5,4.12,1111122 
ENP,ioos.station.NOAA.NDBC:TCVF1:1,2017-12-12T06:00:00Z,25.2130,-80.5330,1.5,3.86,1111122 
ENP,ioos.station.NOAA.NDBC:TCVF1:1,2017-12-12T07:00:00Z,25.2130,-80.5330,1.5,3.71,1111122 
ENP,ioos.station.NOAA.NDBC:TCVF1:1,2017-12-12T08:00:00Z,25.2130,-80.5330,1.5,3.63,1111122 
ENP,ioos.station.NOAA.NDBC:TCVF1:1,2017-12-12T09:00:00Z,25.2130,-80.5330,1.5,3.61,1111122 
ENP,ioos.station.NOAA.NDBC:TCVF1:1,2017-12-12T12:00:00Z,25.2130,-80.5330,1.5,16.6,1111122 
ENP,ioos.station.NOAA.NDBC:TCVF1:1,2017-12-12T13:00:00Z,25.2130,-80.5330,1.5,5.86,1111122 
ENP,ioos.station.NOAA.NDBC:TCVF1:1,2017-12-12T14:00:00Z,25.2130,-80.5330,1.5,5.52,1111122 
ENP,ioos.station.NOAA.NDBC:TCVF1:1,2017-12-12T15:00:00Z,25.2130,-80.5330,1.5,16.53,1111122 
ENP,ioos.station.NOAA.NDBC:TCVF1:1,2017-12-12T16:00:00Z,25.2130,-80.5330,1.5,19.31,1111122 
ENP,ioos.station.NOAA.NDBC:TCVF1:1,2017-12-12T17:00:00Z,25.2130,-80.5330,1.5,19.79,1111122 
ENP,ioos.station.NOAA.NDBC:TCVF1:1,2017-12-12T18:00:00Z,25.2130,-80.5330,1.5,20.13,1111122 
ENP,ioos.station.NOAA.NDBC:TCVF1:1,2017-12-12T19:00:00Z,25.2130,-80.5330,1.5,20.34,1111122 
ENP,ioos.station.NOAA.NDBC:TCVF1:1,2017-12-12T20:00:00Z,25.2130,-80.5330,1.5,20.68,1111122 
ENP,ioos.station.NOAA.NDBC:TCVF1:1,2017-12-12T21:00:00Z,25.2130,-80.5330,1.5,20.82,1111122 
ENP,ioos.station.NOAA.NDBC:TCVF1:1,2017-12-13T08:00:00Z,25.2130,-80.5330,1.5,20.61,1111122 
ENP,ioos.station.NOAA.NDBC:TCVF1:1,2017-12-13T09:00:00Z,25.2130,-80.5330,1.5,15.26,1111122 
ENP,ioos.station.NOAA.NDBC:TCVF1:1,2017-12-13T11:00:00Z,25.2130,-80.5330,1.5,11.13,1111122 
ENP,ioos.station.NOAA.NDBC:TCVF1:1,2017-12-13T12:00:00Z,25.2130,-80.5330,1.5,9.59,1111122 
ENP,ioos.station.NOAA.NDBC:TCVF1:1,2017-12-13T13:00:00Z,25.2130,-80.5330,1.5,8.51,1111122 
ENP,ioos.station.NOAA.NDBC:TCVF1:1,2017-12-13T16:00:00Z,25.2130,-80.5330,1.5,6.41,1111122 
ENP,ioos.station.NOAA.NDBC:TCVF1:1,2017-12-13T17:00:00Z,25.2130,-80.5330,1.5,5.89,1111122 
ENP,ioos.station.NOAA.NDBC:TCVF1:1,2017-12-13T18:00:00Z,25.2130,-80.5330,1.5,5.72,1111122 
ENP,ioos.station.NOAA.NDBC:TCVF1:1,2017-12-13T19:00:00Z,25.2130,-80.5330,1.5,5.67,1111122 
ENP,ioos.station.NOAA.NDBC:TCVF1:1,2017-12-13T20:00:00Z,25.2130,-80.5330,1.5,5.69,1111122 
ENP,ioos.station.NOAA.NDBC:TCVF1:1,2017-12-13T21:00:00Z,25.2130,-80.5330,1.5,5.68,1111122 
ENP,ioos.station.NOAA.NDBC:TCVF1:1,2017-12-14T09:00:00Z,25.2130,-80.5330,1.5,19.45,1111122 
ENP,ioos.station.NOAA.NDBC:TCVF1:1,2017-12-14T11:00:00Z,25.2130,-80.5330,1.5,11.84,1111122 
ENP,ioos.station.NOAA.NDBC:TCVF1:1,2017-12-14T12:00:00Z,25.2130,-80.5330,1.5,10.16,1111122 
ENP,ioos.station.NOAA.NDBC:TCVF1:1,2017-12-14T13:00:00Z,25.2130,-80.5330,1.5,9.78,1111122 
ENP,ioos.station.NOAA.NDBC:TCVF1:1,2017-12-14T14:00:00Z,25.2130,-80.5330,1.5,17.14,1111122 
ENP,ioos.station.NOAA.NDBC:TCVF1:1,2017-12-14T15:00:00Z,25.2130,-80.5330,1.5,18.36,1111122 
ENP,ioos.station.NOAA.NDBC:TCVF1:1,2017-12-14T16:00:00Z,25.2130,-80.5330,1.5,18.63,1111122 
ENP,ioos.station.NOAA.NDBC:TCVF1:1,2017-12-14T17:00:00Z,25.2130,-80.5330,1.5,9.78,1111122 
ENP,ioos.station.NOAA.NDBC:TCVF1:1,2017-12-14T18:00:00Z,25.2130,-80.5330,1.5,9.02,1111122 
ENP,ioos.station.NOAA.NDBC:TCVF1:1,2017-12-14T19:00:00Z,25.2130,-80.5330,1.5,17.68,1111122 
ENP,ioos.station.NOAA.NDBC:TCVF1:1,2017-12-14T22:00:00Z,25.2130,-80.5330,1.5,18.83,1111122 
ENP,ioos.station.NOAA.NDBC:TCVF1:1,2017-12-14T23:00:00Z,25.2130,-80.5330,1.5,18.9,1111122 
ENP,ioos.station.NOAA.NDBC:TCVF1:1,2017-12-15T00:00:00Z,25.2130,-80.5330,1.5,18.9,1111122 
ENP,ioos.station.NOAA.NDBC:TCVF1:1,2017-12-15T01:00:00Z,25.2130,-80.5330,1.5,19.04,1111122 
ENP,ioos.station.NOAA.NDBC:TCVF1:1,2017-12-15T04:00:00Z,25.2130,-80.5330,1.5,19.65,1111122 
ENP,ioos.station.NOAA.NDBC:TCVF1:1,2017-12-15T07:00:00Z,25.2130,-80.5330,1.5,20.06,1111122 
ENP,ioos.station.NOAA.NDBC:TCVF1:1,2017-12-15T08:00:00Z,25.2130,-80.5330,1.5,20.13,1111122 
ENP,ioos.station.NOAA.NDBC:TCVF1:1,2017-12-15T09:00:00Z,25.2130,-80.5330,1.5,19.72,1111122 
ENP,ioos.station.NOAA.NDBC:TCVF1:1,2017-12-15T11:00:00Z,25.2130,-80.5330,1.5,11.06,1111122 
ENP,ioos.station.NOAA.NDBC:TCVF1:1,2017-12-15T12:00:00Z,25.2130,-80.5330,1.5,10.1,1111122 
ENP,ioos.station.NOAA.NDBC:TCVF1:1,2017-12-15T13:00:00Z,25.2130,-80.5330,1.5,9.84,1111122 
ENP,ioos.station.NOAA.NDBC:TCVF1:1,2017-12-15T14:00:00Z,25.2130,-80.5330,1.5,9.27,1111122 
ENP,ioos.station.NOAA.NDBC:TCVF1:1,2017-12-15T15:00:00Z,25.2130,-80.5330,1.5,18.56,1111122 
ENP,ioos.station.NOAA.NDBC:TCVF1:1,2017-12-15T16:00:00Z,25.2130,-80.5330,1.5,19.38,1111122 
ENP,ioos.station.NOAA.NDBC:TCVF1:1,2017-12-15T17:00:00Z,25.2130,-80.5330,1.5,19.65,1111122 
ENP,ioos.station.NOAA.NDBC:TCVF1:1,2017-12-15T18:00:00Z,25.2130,-80.5330,1.5,19.79,1111122 
ENP,ioos.station.NOAA.NDBC:TCVF1:1,2017-12-15T19:00:00Z,25.2130,-80.5330,1.5,15.4,1111122 
ENP,ioos.station.NOAA.NDBC:TCVF1:1,2017-12-15T20:00:00Z,25.2130,-80.5330,1.5,11.78,1111122 
ENP,ioos.station.NOAA.NDBC:TCVF1:1,2017-12-15T21:00:00Z,25.2130,-80.5330,1.5,9.27,1111122 
ENP,ioos.station.NOAA.NDBC:TCVF1:1,2017-12-15T22:00:00Z,25.2130,-80.5330,1.5,8.26,1111122 
ENP,ioos.station.NOAA.NDBC:TCVF1:1,2017-12-15T23:00:00Z,25.2130,-80.5330,1.5,7.4,1111122 
ENP,ioos.station.NOAA.NDBC:TCVF1:1,2017-12-16T00:00:00Z,25.2130,-80.5330,1.5,6.69,1111122 